Overview Statistics Trail Chart Weather Telemetry Raw packets
 

This is the latest recevied weather packets stored in our database for station/object SV9TNF-54. If no packets are shown the sender has not sent any weather packets the latest 10 day(s).

<< 6 7 8 9 10 11 12 >>
Time Temp. Humidity Pressure Rain* Wind** Luminosity Snow
1788614564 31.11° C 33% 1014.9 hPa 0 mm 32.19 m/s, 335° - -
1788614264 31.11° C 33% 1014.9 hPa 0 mm 32.19 m/s, 335° - -
1788613964 30.56° C 34% 1014.9 hPa 0 mm 46.49 m/s, 16° - -
1788613664 30.56° C 34% 1014.9 hPa 0 mm 46.49 m/s, 16° - -
1788613364 30.56° C 34% 1014.9 hPa 0 mm 46.49 m/s, 16° - -
1788613063 31.11° C 34% 1014.9 hPa 0 mm 24.14 m/s, 53° - -
1788612763 31.11° C 34% 1014.9 hPa 0 mm 24.14 m/s, 53° - -
1788612463 31.11° C 34% 1014.9 hPa 0 mm 24.14 m/s, 53° - -
1788612163 31.11° C 34% 1014.9 hPa 0 mm 24.14 m/s, 53° - -
1788611863 31.11° C 34% 1014.9 hPa 0 mm 24.14 m/s, 53° - -
1788611563 31.11° C 34% 1014.9 hPa 0 mm 24.14 m/s, 53° - -
1788611263 31.11° C 35% 1014.6 hPa 0 mm 54.54 m/s, 12° - -
1788610963 31.11° C 35% 1014.6 hPa 0 mm 54.54 m/s, 12° - -
1788610662 31.11° C 35% 1014.6 hPa 0 mm 54.54 m/s, 12° - -
1788610362 31.11° C 36% 1015.2 hPa 0 mm 22.35 m/s, 350° - -
1788610062 31.11° C 36% 1015.2 hPa 0 mm 22.35 m/s, 350° - -
1788609762 31.11° C 36% 1015.2 hPa 0 mm 22.35 m/s, 350° - -
1788609462 31.11° C 36% 1014.6 hPa 0 mm 51.41 m/s, 82° - -
1788609162 31.11° C 36% 1014.6 hPa 0 mm 51.41 m/s, 82° - -
1788608862 31.11° C 36% 1014.6 hPa 0 mm 51.41 m/s, 82° - -
1788608562 31.11° C 36% 1014.6 hPa 0 mm 51.41 m/s, 82° - -
1788608262 31.11° C 36% 1014.6 hPa 0 mm 51.41 m/s, 82° - -
1788607961 31.11° C 36% 1014.6 hPa 0 mm 51.41 m/s, 82° - -
1788607662 31.11° C 36% 1014.6 hPa 0 mm 51.41 m/s, 82° - -
1788607362 31.11° C 36% 1014.6 hPa 0 mm 51.41 m/s, 82° - -

* Rain latest hour (hover to see other rain measurements)
** Current wind speed in m/s (hover to see current wind gust speed)